Weather History for Philip, SD

Change the Weather History Date:

Wednesday, May 2, 2012

  Actual Average Record
Temperature  
Mean Temperature 60 °F 52 °F  
Max Temperature 79 °F 66 °F 90 °F (1955)
Min Temperature 41 °F 39 °F 18 °F (2013)
Degree Days  
Heating Degree Days 5 13  
Month to date heating degree days 11 26  
Since 1 July heating degree days 5632 6893  
Cooling Degree Days 0 0  
Month to date cooling degree days 0 0  
Year to date cooling degree days 14 3  
Growing Degree Days 10 (Base 50)    
Moisture  
Dew Point 47 °F    
Average Humidity 64    
Maximum Humidity 96    
Minimum Humidity 32    
Precipitation  
Precipitation 0.00 in 0.10 in 0.79 in (1964)
Month to date precipitation T 0.19  
Year to date precipitation 2.64 4.08  
Sea Level Pressure  
Sea Level Pressure 29.67 in    
Wind  
Wind Speed 6 mph (WSW)    
Max Wind Speed 18 mph    
Max Gust Speed 24 mph    
Visibility 10 miles    
Events      
T = Trace of Precipitation, MM = Missing Value Source: NWS Daily Summary

Daily Weather History Graph

Daily Weather History Graph

Search for Another Location

Airport:

Trip Planner

Search our weather history database for the weather conditions in past years. The results will help you decide how hot, cold, wet, or windy it might be!

Date:

Astronomy

May. 02, 2012 Rise Set
Actual Time 5:35 AM MDT 7:51 PM MDT
Civil Twilight 5:03 AM MDT 8:23 PM MDT
Nautical Twilight 4:24 AM MDT 9:03 PM MDT
Astronomical Twilight 3:40 AM MDT 9:47 PM MDT
Moon 3:59 PM MDT (5/2) 3:15 AM MDT (5/2)
Length of Visible Light 15h 19m
Length of Day
14h 15m
Waxing Gibbous, 84% of the Moon is Illuminated
May 2
Waxing Gibbous
May 5
Full
May 12
Last Quarter
May 20
New
May 28
First Quarter

Hourly Weather History & Observations

Time (MDT) Temp. Windchill Dew Point Humidity Pressure Visibility Wind Dir Wind Speed Gust Speed Precip Events Conditions
12:55 AM 46.9 °F - 45.0 °F 93% 29.65 in 10.0 mi WNW 5.8 mph - N/A   Clear
1:55 AM 46.0 °F 43.9 °F 44.1 °F 93% 29.64 in 10.0 mi West 4.6 mph - N/A   Clear
2:55 AM 44.1 °F 40.1 °F 43.0 °F 96% 29.66 in 10.0 mi West 6.9 mph - N/A   Clear
3:55 AM 44.1 °F 41.5 °F 42.1 °F 93% 29.67 in 10.0 mi WNW 4.6 mph - N/A   Clear
4:55 AM 42.1 °F 38.4 °F 39.9 °F 92% 29.69 in 10.0 mi West 5.8 mph - N/A   Clear
5:55 AM 43.0 °F 40.3 °F 41.0 °F 93% 29.70 in 10.0 mi West 4.6 mph - N/A   Clear
6:55 AM 46.0 °F - 44.1 °F 93% 29.72 in 10.0 mi Calm Calm - N/A   Clear
7:55 AM 48.0 °F - 46.0 °F 93% 29.74 in 10.0 mi Calm Calm - N/A   Partly Cloudy
8:55 AM 51.1 °F - 46.9 °F 86% 29.75 in 10.0 mi Calm Calm - N/A   Clear
9:55 AM 55.9 °F - 48.9 °F 77% 29.74 in 10.0 mi East 3.5 mph - N/A   Clear
10:55 AM 60.1 °F - 45.0 °F 57% 29.73 in 10.0 mi East 5.8 mph - N/A   Clear
11:55 AM 66.0 °F - 50.0 °F 56% 29.70 in 10.0 mi Variable 4.6 mph - N/A   Clear
12:55 PM 70.0 °F - 48.0 °F 46% 29.67 in 10.0 mi South 8.1 mph 16.1 mph N/A   Clear
1:55 PM 73.0 °F - 48.9 °F 42% 29.65 in 10.0 mi SW 6.9 mph - N/A   Clear
2:55 PM 75.9 °F - 48.9 °F 38% 29.62 in 10.0 mi SSW 9.2 mph - N/A   Clear
3:55 PM 78.1 °F - 50.0 °F 37% 29.60 in 10.0 mi SSW 9.2 mph - N/A   Clear
4:55 PM 75.9 °F - 50.0 °F 40% 29.59 in 10.0 mi East 5.8 mph - N/A   Scattered Clouds
5:55 PM 78.1 °F - 46.0 °F 32% 29.58 in 10.0 mi SW 13.8 mph 23.0 mph N/A   Clear
6:55 PM 70.0 °F - 48.0 °F 46% 29.60 in 10.0 mi NNW 10.4 mph - N/A   Scattered Clouds
7:55 PM 64.0 °F - 50.0 °F 60% 29.63 in 10.0 mi ENE 6.9 mph - N/A   Mostly Cloudy
8:55 PM 61.0 °F - 50.0 °F 67% 29.66 in 10.0 mi NNE 4.6 mph - N/A   Partly Cloudy
9:55 PM 57.9 °F - 50.0 °F 75% 29.66 in 10.0 mi East 6.9 mph - N/A   Clear
10:55 PM 55.0 °F - 48.9 °F 80% 29.66 in 10.0 mi East 3.5 mph - N/A   Clear
11:55 PM 62.1 °F - 45.0 °F 53% 29.66 in 10.0 mi WNW 4.6 mph - N/A   Clear